Home > Weather > Greifswald > Past weeks

Flag for Germany Weather for the Past 2 Weeks in Greifswald, Mecklenburg-Western Pomerania, Germany

Now
59 °F

Clear.


Feels Like: 58 °F
Forecast: 52 / 69 °F
Wind: 6 mph from Northeast

Location: Trollenhagen

Current Time: May 6, 2016 at 9:53:46 PM

Latest Report: May 6, 2016 at 9:00 PM


Visibility: N/A

Pressure: 30.08 "Hg

Humidity: 57%

Dew Point: 43 °F

Location of GreifswaldLocation

Historic Weather in Greifswald — Graph

°F

Greifswald Temperature Yesterday

Maximum temperature yesterday: 64 °F (at 6:00 PM)
Minimum temperature yesterday: 38 °F (at 7:00 AM)
Average temperature yesterday: 51 °F

High & Low Weather Summary for the Past Weeks

 TemperatureHumidityPressure
High71 °F (May 6, 4:00 PM)100% (May 1, 6:00 AM)30.41 "Hg (May 1, 6:00 AM)
Low33 °F (Apr 25, 3:00 AM)34% (Apr 29, 7:00 PM)29.44 "Hg (Apr 26, 7:00 PM)
Average47 °F69%30.00 "Hg
* Reported Apr 21 7:00 PM — May 6 7:00 PM, Greifswald, Weather by CustomWeather, © 2016

Note: Actual official high and low records may vary slightly from our data, if they occured in-between our weather recording intervals... More about our weather records

Advertising

Greifswald Weather History for the Previous 24 Hours

Scroll right to see more
 ConditionsComfort  
Time TempWeatherWind HumidityBarometerVisibility
7:00 PM
Fri, May 6
69 °FSunny.6 mph43%30.08 "HgN/A
6:00 PM70 °FSunny.7 mph38%30.09 "HgN/A
4:00 PM71 °FPassing clouds.5 mph40%30.11 "HgN/A
3:00 PM69 °FSunny.5 mph39%30.14 "HgN/A
1:00 PM69 °FPassing clouds.6 mph44%30.17 "HgN/A
12:00 PM68 °FSunny.6 mph51%30.18 "HgN/A
10:00 AM61 °FPassing clouds.2 mph64%30.21 "HgN/A
9:00 AM56 °FSunny.2 mph67%30.22 "HgN/A
7:00 AM46 °FSunny.2 mph84%30.23 "HgN/A
6:00 AM43 °FSunny.1 mph88%30.24 "HgN/A
4:00 AM43 °FClear.3 mph85%30.25 "HgN/A
3:00 AM45 °FClear.3 mph79%30.26 "HgN/A
1:00 AM46 °FClear.3 mph75%30.28 "HgN/A
12:00 AM45 °FClear.3 mph73%30.28 "HgN/A
10:00 PM
Thu, May 5
46 °FClear.5 mph70%30.29 "HgN/A
9:00 PM52 °FClear.6 mph61%30.28 "HgN/A
Weather by CustomWeather, © 2016

See weather overviewHow to use our weather pages